Okeechobee, FL

12:30 PM EDT on May 26, 2018 (GMT -0400)
Okeechobee County

Weather History for KOBE - September, 2013

Change the Weather History Date:

Monday, September 16, 2013

  Actual Average Record
Temperature  
Mean Temperature 79 °F -  
Max Temperature 87 °F 89 °F 96 °F (2008)
Min Temperature 71 °F 72 °F 66 °F (2011)
Cooling Degree Days 14    
Growing Degree Days 29 (Base 50)    
Moisture  
Dew Point 72 °F    
Average Humidity 96    
Maximum Humidity 100    
Minimum Humidity 70    
Precipitation  
Precipitation 1.22 in - - ()
Sea Level Pressure  
Sea Level Pressure 30.04 in    
Wind  
Wind Speed 3 mph (ENE)    
Max Wind Speed 18 mph    
Max Gust Speed 25 mph    
Visibility 9 miles    
Events Rain , Thunderstorm    
Averages and records for this station are not official NWS values.
T = Trace of Precipitation, MM = Missing Value Source: NWS Daily Summary

Daily Weather History Graph

Daily Weather History Graph

Search for Another Location

Airport or City:

Astronomy

Sep. 16, 2013 Rise Set
Actual Time 7:09 AM EDT 7:26 PM EDT
Civil Twilight 6:46 AM EDT 7:49 PM EDT
Nautical Twilight 6:18 AM EDT 8:17 PM EDT
Astronomical Twilight 5:51 AM EDT 8:44 PM EDT
Moon 5:24 PM EDT (9/16) 4:07 AM EDT (9/16)
Length of Visible Light 13h 03m
Length of Day
12h 17m
Waxing Gibbous, 90% of the Moon is Illuminated
Sep 16
Waxing Gibbous
Sep 19
Full
Sep 26
Last Quarter
Oct 4
New
Oct 11
First Quarter

Hourly Weather History & Observations

Time (EDT) Temp. Heat Index Dew Point Humidity Pressure Visibility Wind Dir Wind Speed Gust Speed Precip Events Conditions
12:15 AM 71.6 °F - 71.6 °F 100% 30.07 in 10.0 mi Calm Calm - N/A   Clear
12:35 AM 71.6 °F - 71.6 °F 100% 30.07 in 10.0 mi Calm Calm - N/A   Clear
12:55 AM 71.6 °F - 71.6 °F 100% 30.06 in 10.0 mi NNE 4.6 mph - N/A   Clear
1:15 AM 71.6 °F - 71.6 °F 100% 30.07 in 10.0 mi Calm Calm - N/A   Clear
1:35 AM 71.6 °F - 71.6 °F 100% 30.06 in 10.0 mi Calm Calm - N/A   Clear
1:55 AM 71.6 °F - 71.6 °F 100% 30.06 in 10.0 mi Calm Calm - N/A   Clear
2:15 AM 71.6 °F - 71.6 °F 100% 30.05 in 10.0 mi NE 3.5 mph - N/A   Clear
2:35 AM 71.6 °F - 71.6 °F 100% 30.05 in 10.0 mi Calm Calm - N/A   Clear
2:55 AM 71.6 °F - 71.6 °F 100% 30.04 in 10.0 mi Calm Calm - N/A   Clear
3:15 AM 71.6 °F - 71.6 °F 100% 30.03 in 10.0 mi NNE 4.6 mph - N/A   Clear
3:35 AM 71.6 °F - 71.6 °F 100% 30.03 in 10.0 mi NE 3.5 mph - N/A   Clear
3:55 AM 71.6 °F - 71.6 °F 100% 30.03 in 10.0 mi ENE 3.5 mph - N/A   Clear
4:15 AM 71.6 °F - 71.6 °F 100% 30.04 in 10.0 mi Calm Calm - N/A   Clear
4:35 AM 71.6 °F - 71.6 °F 100% 30.03 in 10.0 mi Calm Calm - N/A   Clear
4:55 AM 71.6 °F - 71.6 °F 100% 30.03 in 10.0 mi NE 3.5 mph - N/A   Clear
5:15 AM 71.6 °F - 71.6 °F 100% 30.03 in 10.0 mi NNE 3.5 mph - N/A   Clear
5:35 AM 71.6 °F - 71.6 °F 100% 30.03 in 10.0 mi NE 3.5 mph - N/A   Clear
5:55 AM 71.6 °F - 71.6 °F 100% 30.03 in 10.0 mi ENE 3.5 mph - N/A   Clear
6:15 AM 71.6 °F - 71.6 °F 100% 30.04 in 10.0 mi NE 3.5 mph - N/A   Clear
6:35 AM 71.6 °F - 71.6 °F 100% 30.04 in 7.0 mi NNE 3.5 mph - N/A   Clear
6:55 AM 71.6 °F - 71.6 °F 100% 30.04 in 10.0 mi Calm Calm - N/A   Clear
7:15 AM 71.6 °F - 71.6 °F 100% 30.05 in 7.0 mi Calm Calm - N/A   Clear
7:35 AM 71.6 °F - 71.6 °F 100% 30.05 in 7.0 mi ENE 3.5 mph - N/A   Clear
7:55 AM 73.4 °F - 73.4 °F 100% 30.05 in 10.0 mi ENE 3.5 mph - N/A   Clear
8:15 AM 73.4 °F - 73.4 °F 100% 30.05 in 10.0 mi Calm Calm - N/A   Clear
8:35 AM 77.0 °F - 75.2 °F 94% 30.05 in 10.0 mi NNE 6.9 mph - N/A   Clear
8:55 AM 78.8 °F - 77.0 °F 94% 30.05 in 10.0 mi NE 8.1 mph - N/A   Clear
9:15 AM 78.8 °F - 77.0 °F 94% 30.05 in 10.0 mi NE 5.8 mph - N/A   Clear
9:35 AM 80.6 °F 87.1 °F 77.0 °F 89% 30.06 in 10.0 mi ENE 5.8 mph - N/A   Clear
9:55 AM 80.6 °F 87.1 °F 77.0 °F 89% 30.06 in 10.0 mi ENE 5.8 mph - N/A   Clear
10:15 AM 80.6 °F 87.1 °F 77.0 °F 89% 30.07 in 10.0 mi ENE 6.9 mph - N/A   Clear
10:35 AM 82.4 °F 90.9 °F 77.0 °F 84% 30.07 in 10.0 mi ENE 5.8 mph - N/A   Clear
10:55 AM 82.4 °F 90.9 °F 77.0 °F 84% 30.07 in 10.0 mi ENE 9.2 mph - N/A   Scattered Clouds
11:15 AM 84.2 °F 92.3 °F 75.2 °F 74% 30.07 in 10.0 mi East 6.9 mph - N/A   Scattered Clouds
11:35 AM 87.8 °F 99.7 °F 77.0 °F 70% 30.06 in 10.0 mi East 8.1 mph - N/A   Scattered Clouds
11:55 AM 82.4 °F 90.9 °F 77.0 °F 84% 30.07 in 4.0 mi East 6.9 mph - 0.08 in Rain Heavy Rain
12:15 PM 77.0 °F - 71.6 °F 83% 30.08 in 1.8 mi ESE 18.4 mph 25.3 mph 0.20 in Rain Heavy Rain
12:35 PM 71.6 °F - 69.8 °F 94% 30.09 in 1.0 mi ESE 4.6 mph 17.3 mph 0.81 in Rain , Thunderstorm Heavy Thunderstorms and Rain
12:55 PM 71.6 °F - 69.8 °F 94% 30.06 in 5.0 mi SE 5.8 mph - 0.91 in Rain , Thunderstorm Light Thunderstorms and Rain
1:15 PM 73.4 °F - 71.6 °F 94% 30.07 in 10.0 mi SE 10.4 mph - N/A Rain , Thunderstorm Rain
1:35 PM 73.4 °F - 71.6 °F 94% 30.08 in 10.0 mi SE 8.1 mph - 0.02 in Rain Light Rain
1:55 PM 73.4 °F - 71.6 °F 94% 30.06 in 7.0 mi ESE 9.2 mph 21.9 mph 0.11 in Rain Light Rain
2:15 PM 73.4 °F - 71.6 °F 94% 30.06 in 5.0 mi SE 5.8 mph - 0.07 in Rain Light Rain
2:35 PM 73.4 °F - 71.6 °F 94% 30.07 in 10.0 mi SE 5.8 mph - 0.09 in Rain Rain
2:55 PM 73.4 °F - 71.6 °F 94% 30.06 in 10.0 mi SE 3.5 mph - 0.09 in Rain Rain
3:15 PM 73.4 °F - 71.6 °F 94% 30.05 in 10.0 mi East 4.6 mph - N/A   Light Drizzle
3:35 PM 73.4 °F - 73.4 °F 100% 30.06 in 10.0 mi ENE 8.1 mph - 0.01 in Rain Light Rain
3:55 PM 73.4 °F - 71.6 °F 94% 30.05 in 10.0 mi ENE 5.8 mph - 0.01 in   Mostly Cloudy
4:15 PM 73.4 °F - 71.6 °F 94% 30.03 in 10.0 mi Calm Calm - N/A Rain Light Rain
4:35 PM 73.4 °F - 71.6 °F 94% 30.02 in 10.0 mi ESE 4.6 mph - N/A Rain Light Rain
4:55 PM 73.4 °F - 71.6 °F 94% 30.00 in 10.0 mi Calm Calm - N/A Rain Light Rain
5:15 PM 73.4 °F - 73.4 °F 100% 30.00 in 10.0 mi NE 3.5 mph - N/A   Light Drizzle
5:35 PM 73.4 °F - 71.6 °F 94% 30.01 in 10.0 mi ENE 6.9 mph - N/A   Mostly Cloudy
5:55 PM 73.4 °F - 71.6 °F 94% 30.02 in 10.0 mi East 6.9 mph - N/A Rain Light Rain
6:15 PM 71.6 °F - 71.6 °F 100% 30.01 in 10.0 mi East 3.5 mph - N/A   Light Drizzle
6:35 PM 71.6 °F - 71.6 °F 100% 30.00 in 10.0 mi ENE 5.8 mph - N/A   Light Drizzle
6:55 PM 71.6 °F - 71.6 °F 100% 30.00 in 10.0 mi ENE 3.5 mph - N/A   Scattered Clouds
7:15 PM 71.6 °F - 71.6 °F 100% 30.01 in 10.0 mi NE 3.5 mph - N/A   Clear
7:35 PM 71.6 °F - 71.6 °F 100% 30.01 in 10.0 mi East 3.5 mph - N/A   Clear
7:55 PM 71.6 °F - 71.6 °F 100% 30.02 in 10.0 mi North 4.6 mph - N/A   Clear
8:15 PM 71.6 °F - 71.6 °F 100% 30.02 in 10.0 mi Calm Calm - N/A   Clear
8:35 PM 71.6 °F - 71.6 °F 100% 30.02 in 10.0 mi Calm Calm - N/A   Clear
8:55 PM 71.6 °F - 71.6 °F 100% 30.02 in 10.0 mi Calm Calm - N/A   Clear
9:15 PM 71.6 °F - 71.6 °F 100% 30.03 in 10.0 mi NNE 3.5 mph - N/A   Clear
9:35 PM 71.6 °F - 71.6 °F 100% 30.03 in 10.0 mi NE 3.5 mph - N/A   Clear
9:55 PM 71.6 °F - 71.6 °F 100% 30.03 in 10.0 mi Calm Calm - N/A   Clear
10:15 PM 71.6 °F - 71.6 °F 100% 30.03 in 10.0 mi Calm Calm - N/A   Clear
10:35 PM 71.6 °F - 71.6 °F 100% 30.03 in 10.0 mi NE 3.5 mph - N/A   Clear
10:55 PM 71.6 °F - 71.6 °F 100% 30.04 in 10.0 mi NE 3.5 mph - N/A   Clear
11:15 PM 71.6 °F - 71.6 °F 100% 30.04 in 10.0 mi NE 3.5 mph - N/A   Clear
11:35 PM 71.6 °F - 71.6 °F 100% 30.03 in 10.0 mi NE 3.5 mph - N/A   Clear
11:55 PM 71.6 °F - 71.6 °F 100% 30.03 in 10.0 mi Calm Calm - 0.02 in   Clear